Presure
111 110 113 117 116 116 117 111 95 94 101 122 108 106 101 107 100 105 101 104 102 106 110 100 113 86 110 104 110 116 101 108 112 112 97 96 101 114 103 111 112 113 93
115 117 117 115 114 113 116 116 115 117 119 117 116 110 113 100 106 106 104 121 100 109 119 103 109 104 113 109 103 98 107 114 87 120 116 118 92 106 105 110 99 85 101
125 129 129 126 126 113 111 114 120 125 125 114 114 118 124 117 105 109 124 118 111 112 113 105 95 104 121 116 108 104 114 105 118 124 96 118 118 107 102 118 114 114 112
127 128 121 120 122 126 118 126 132 180 136 229 222 156 141 138 124 139 154 249 171 169 178 130 123 127 118 130 118 114 124 122 99 113 103 106 115 117 113 100 108 122 116
151 152 159 206 204 201 228 226 232 227 229 232 202 186 218 236 219 248 206 154 245 246 241 248 76 244 261 255 224 215 156 86 133 138 139 130 128 96 120 127 116 104 113
226 224 220 221 166 225 224 224 220 223 221 219 224 219 230 223 211 198 165 229 243 242 249 241 255 300 162 252 243 229 83 221 214 181 166 162 153 79 143 139 141 142 126
222 220 217 217 222 218 219 184 220 156 216 216 214 212 214 223 225 244 236 235 236 229 238 233 233 252 256 249 247 240 176 219 218 218 218 218 195 177 168 162 149 145 151
200 215 214 213 214 217 216 215 216 213 211 200 198 202 213 217 219 226 222 205 170 155 155 153 140 166 185 247 239 201 230 232 154 224 216 214 147 219 225 214 196 147 192
206 213 207 202 214 210 203 174 207 206 209 209 203 228 216 221 223 217 220 219 242 230 247 228 226 251 241 246 238 234 222 83 211 137 151 213 116 144 158 118 207 235 203
209 206 212 209 191 200 207 210 208 208 205 201 208 203 215 214 213 158 229 235 235 211 231 235 229 237 230 81 162 161 223 222 228 171 229 109 78 165 206 90 201 214 215
174 210 195 206 204 175 207 204 199 202 202 200 204 193 207 212 199 206 207 213 107 158 188 183 213 216 283 227 264 228 215 220 189 175 99 197 173 198 214 180 210 199 199
197 191 200 205 205 200 200 195 195 195 200 195 197 203 202 194 195 187 198 221 213 124 193 178 163 123 240 220 121 181 183 212 216 194 148 143 202 218 210 203 198 201 193
209 202 203 190 205 212 211 203 198 193 191 189 193 154 195 205 201 190 206 197 222 206 92 170 227 233 178 276 268 250 224 212 208 210 224 206 204 213 202 204 195 201 213
175 165 179 172 203 203 198 197 213 207 196 198 191 206 185 196 200 193 102 200 224 201 224 206 220 263 144 247 251 166 190 193 204 204 210 209 200 220 198 202 198 197 208
170 65 180 177 184 182 179 195 194 205 197 205 198 192 182 157 178 192 195 205 225 228 219 198 239 176 250 136 205 249 219 203 231 215 203 202 200 200 200 213 202 196 195
195 187 177 182 173 178 188 181 172 172 181 188 204 204 199 192 187 147 81 172 219 214 162 224 181 251 194 215 242 234 233 222 241 219 222 195 198 202 202 193 206 192 185
206 200 188 180 177 144 144 187 181 172 178 177 192 198 183 205 189 204 182 207 209 211 218 215 223 239 276 251 237 219 225 233 235 227 206 205 202 196 191 217 193 234 203
182 145 140 176 185 134 169 171 203 194 170 194 163 206 191 97 154 194 190 195 223 174 180 196 219 237 223 249 230 225 208 212 225 246 233 231 226 199 209 237 188 215 237
200 198 199 183 193 193 135 189 198 189 195 190 195 160 195 205 195 184 176 199 209 202 195 202 193 234 285 236 229 219 213 201 193 191 198 204 205 206 215 217 228 236 238
228 193 197 208 201 191 199 163 186 204 212 215 202 200 167 192 181 191 203 172 193 195 197 199 193 215 213 231 237 214 211 204 199 185 189 191 223 216 214 214 220 186 193
272 276 261 217 215 206 204 202 200 167 173 169 205 192 182 191 181 174 180 175 220 226 198 205 194 191 221 207 226 220 212 212 202 190 193 191 219 218 213 201 186 175 172
220 250 246 237 238 232 223 220 200 195 209 178 165 170 170 186 194 165 165 172 189 209 192 204 190 195 179 204 225 226 207 208 205 194 192 193 227 211 203 190 179 179 188
261 262 247 233 250 242 221 237 203 211 190 204 197 172 166 190 187 192 187 211 186 202 213 191 185 178 207 256 225 224 212 202 195 197 196 227 218 208 190 171 212 164 186
266 261 258 242 250 243 243 227 168 215 179 200 205 202 187 173 175 179 181 181 206 197 203 148 199 195 195 209 244 220 212 207 202 214 186 225 196 191 186 169 175 171 212
322 325 304 280 261 253 253 242 210 195 212 216 200 207 208 193 183 196 197 187 153 166 182 191 205 202 206 201 246 210 211 205 198 184 206 221 201 183 179 173 169 168 197
314 310 308 288 280 265 198 255 233 223 223 218 203 194 195 215 205 206 193 193 191 195 204 207 205 194 180 198 199 223 216 204 201 196 193 216 211 169 166 185 175 187 185
Wind_Speed
50 50 50 52 50 50 51 50 46 43 49 57 54 54 50 55 52 55 52 54 51 57 58 39 60 34 59 45 60 59 50 65 68 62 36 38 48 57 55 56 57 61 36
56 57 58 56 55 53 54 56 57 58 59 59 59 58 59 54 59 59 57 64 53 62 66 49 60 57 66 61 50 42 55 68 28 71 61 66 34 55 53 57 45 27 54
61 64 65 63 65 56 53 56 61 65 65 59 60 60 64 63 59 63 67 64 64 65 63 49 33 54 66 73 59 53 65 57 65 74 41 63 67 56 49 66 64 65 65
63 65 62 61 64 66 62 67 70 61 71 47 50 70 71 72 67 75 70 34 50 50 54 73 71 72 69 74 68 66 68 62 53 67 54 54 57 67 65 48 61 70 70
77 76 77 62 65 55 55 55 50 51 48 44 47 50 47 40 42 31 47 67 36 36 39 38 25 38 36 42 54 51 80 32 73 76 78 70 70 46 71 70 68 53 60
51 55 58 59 71 54 55 53 53 51 50 49 46 45 43 44 47 53 65 40 35 35 35 37 35 33 33 43 48 57 33 69 77 89 86 83 82 28 79 77 81 83 69
51 55 58 57 53 54 54 57 51 62 50 49 48 48 47 46 42 37 37 36 38 41 38 38 39 32 37 47 51 51 39 65 68 72 76 76 83 87 86 87 83 83 90
52 53 55 56 55 52 52 53 53 51 51 53 52 50 48 46 46 39 41 48 62 71 75 75 71 73 66 47 51 66 58 60 38 65 71 71 45 68 65 70 79 76 80
52 51 56 55 51 52 57 63 55 53 51 53 54 44 46 43 40 40 40 42 38 38 39 43 38 34 33 38 49 58 55 20 63 66 72 66 32 60 73 40 64 47 67
54 56 52 49 62 58 57 55 55 53 52 54 52 52 46 44 45 57 39 37 37 39 37 40 38 35 38 22 71 68 56 55 59 69 60 29 23 52 60 38 58 57 56
68 57 64 52 52 65 55 55 57 57 56 54 52 54 49 46 49 46 43 41 25 43 52 43 37 36 29 28 37 59 56 59 55 64 47 59 72 60 53 66 54 56 61
60 66 63 60 56 56 54 56 59 59 56 58 56 52 52 53 51 48 47 42 40 34 50 36 30 33 33 30 46 46 54 53 57 64 45 40 57 51 47 54 53 52 60
52 56 59 65 62 61 57 51 56 59 59 61 57 50 55 52 52 56 42 43 42 43 32 56 42 37 44 23 23 37 50 54 55 50 56 55 52 47 43 41 48 50 52
67 67 68 69 62 63 59 54 55 54 57 57 58 54 57 53 55 54 25 47 49 40 46 41 41 38 60 24 28 48 48 56 57 52 57 58 49 49 43 45 49 49 48
69 21 69 69 66 65 63 61 58 52 53 56 60 57 57 51 55 55 52 49 50 43 43 40 43 48 32 33 35 26 45 50 59 62 58 50 42 43 42 44 45 47 57
64 67 71 69 73 69 68 68 65 62 57 57 59 54 55 56 58 45 26 37 44 40 35 42 36 36 47 27 26 33 37 47 37 56 57 42 50 48 48 44 42 52 59
67 66 70 71 72 71 70 74 71 67 63 59 58 55 61 54 58 53 56 44 42 41 37 42 43 34 25 25 26 34 29 29 33 41 56 55 57 44 41 54 45 46 44
63 74 72 72 72 67 80 77 67 71 61 63 59 55 59 28 51 50 51 43 43 43 43 40 41 32 32 26 25 25 36 35 32 29 36 33 38 49 51 35 42 44 33
80 77 74 72 77 76 49 75 69 75 67 62 60 64 60 57 53 53 47 48 42 41 37 36 38 31 23 29 25 27 33 41 37 36 32 35 37 39 35 33 27 28 27
88 82 82 78 79 79 78 72 75 66 64 59 57 55 62 54 55 53 52 47 43 43 36 40 40 33 37 31 27 31 35 40 38 37 33 34 29 30 29 27 27 27 29
80 80 77 84 83 84 84 78 73 78 69 62 60 58 61 62 57 52 54 50 40 34 37 32 42 41 41 36 34 33 35 34 36 35 36 35 32 30 27 25 28 30 31
79 76 74 78 81 79 80 79 72 78 71 72 70 62 64 60 57 57 50 53 43 32 35 33 47 48 40 39 39 33 36 34 32 33 35 33 33 29 27 30 30 31 31
86 80 76 74 75 75 74 71 71 76 80 70 74 69 64 60 52 58 56 44 47 33 30 49 54 42 46 34 39 37 36 35 34 35 33 32 30 29 31 32 24 29 28
87 81 79 77 79 75 78 73 82 74 85 74 76 78 72 61 63 61 60 51 39 36 39 51 56 56 49 42 42 38 37 36 33 33 33 31 30 33 33 32 33 31 27
71 71 88 95 89 82 78 75 71 69 76 75 84 81 80 70 63 63 53 57 47 54 47 47 42 54 50 46 38 40 40 38 35 40 34 32 34 36 35 33 33 33 28
61 65 64 75 78 83 62 79 78 78 76 76 84 86 76 56 61 58 63 57 54 52 42 40 41 51 42 48 42 42 42 42 37 33 36 36 36 37 35 36 38 34 33
Wind_Direction
266 265 264 263 261 259 259 260 278 279 273 258 266 268 273 269 277 272 278 277 279 278 273 265 268 264 269 262 267 263 287 277 279 283 295 290 276 282 287 283 280 280 287
267 267 266 265 263 261 262 262 261 261 261 261 261 264 265 275 272 272 275 263 279 272 266 262 270 274 268 273 276 285 276 267 270 268 275 274 278 282 283 279 286 296 285
266 266 265 266 267 266 266 266 266 267 267 265 266 264 264 263 270 268 262 263 267 268 268 259 282 277 264 269 274 279 272 278 267 267 277 271 270 279 281 272 274 275 278
268 267 265 265 266 268 268 268 269 275 269 288 286 270 269 268 268 268 270 292 275 276 273 266 266 264 267 265 271 271 265 267 269 278 278 278 273 274 278 281 279 273 273
273 273 275 280 280 278 286 286 290 290 290 292 283 279 284 299 288 301 282 272 287 286 283 283 259 267 259 245 244 245 261 265 266 267 268 272 268 280 269 274 273 281 272
277 276 277 277 277 285 285 285 287 288 289 288 293 288 301 295 283 272 266 294 293 285 293 281 285 297 261 243 247 247 265 251 255 259 262 264 265 268 270 271 271 273 274
272 274 277 281 283 282 283 277 286 273 288 288 288 288 294 302 301 311 306 302 296 286 288 276 275 281 260 238 239 243 247 247 249 252 256 258 259 264 265 266 266 269 270
269 273 276 278 280 282 284 284 285 285 286 284 282 284 294 298 300 307 300 285 267 267 268 267 265 263 264 235 245 251 244 243 250 250 254 256 260 260 263 263 265 270 267
268 268 271 276 279 281 281 280 282 285 291 291 289 304 299 303 305 305 303 300 313 298 301 284 277 314 272 243 242 239 252 267 251 266 266 257 270 268 266 284 262 255 262
269 268 268 272 279 279 280 282 286 288 288 288 295 294 300 298 300 270 310 306 308 296 296 294 282 289 270 272 263 264 250 253 251 263 253 267 281 265 262 284 265 268 264
275 271 274 272 269 278 277 283 286 288 288 290 292 291 295 298 293 298 300 296 287 277 275 278 300 270 293 262 251 240 247 253 259 264 273 259 263 255 259 263 265 262 264
270 279 279 278 275 277 280 281 282 284 288 287 290 293 290 289 291 288 297 309 297 278 288 293 283 280 267 272 265 256 252 253 254 259 259 264 255 261 257 261 263 264 262
271 273 275 281 280 279 277 275 277 280 281 283 288 271 287 295 293 290 299 297 308 300 264 277 296 312 259 275 251 246 246 249 257 257 253 252 255 259 255 255 261 264 271
275 278 279 279 279 280 282 279 274 270 277 279 283 283 284 290 294 293 259 295 310 301 307 292 308 318 278 269 256 277 263 252 255 257 258 257 255 264 250 254 251 255 273
277 266 274 276 276 278 281 279 277 274 275 273 277 279 281 277 284 293 295 302 309 309 302 302 312 280 279 269 269 247 245 253 249 250 255 259 255 256 257 264 253 252 259
268 265 272 274 276 276 275 274 274 276 277 278 274 278 279 280 281 279 250 302 304 301 287 308 295 315 277 265 258 250 248 250 250 251 250 260 261 265 261 248 261 249 258
267 263 258 263 269 267 268 269 269 273 274 277 276 277 277 282 280 285 283 308 299 297 308 307 307 305 279 260 252 251 255 265 260 258 258 260 264 264 259 279 248 280 268
265 268 268 261 260 271 269 270 271 266 269 270 273 274 274 253 271 281 285 297 297 287 288 293 305 301 292 265 250 253 250 254 265 253 264 260 265 270 275 273 250 282 275
266 266 264 262 265 263 259 265 267 267 266 268 273 266 275 274 276 275 283 294 292 289 294 296 290 309 274 276 253 249 249 253 254 256 262 266 269 271 272 274 274 271 267
269 269 267 266 266 265 265 265 267 267 267 264 264 267 267 268 273 279 286 280 287 285 288 283 280 293 291 277 257 252 249 252 254 255 260 264 262 259 265 266 267 253 254
269 264 261 265 263 261 263 262 263 267 265 264 260 259 264 267 269 273 277 283 287 296 289 295 284 282 277 283 269 247 251 253 254 251 260 263 265 248 252 244 246 255 262
274 268 261 260 260 259 259 261 256 262 265 261 262 258 267 262 268 274 275 279 281 286 274 283 275 275 276 275 265 249 250 251 257 251 257 264 250 246 240 239 254 252 258
269 266 264 262 258 255 258 251 253 259 257 256 249 257 265 261 262 269 274 272 273 254 266 257 269 275 274 269 258 249 245 249 250 255 254 254 250 243 232 249 236 263 260
262 261 260 261 256 251 246 245 256 251 254 253 250 248 251 261 261 261 263 269 268 245 257 277 255 262 269 267 248 249 248 242 244 249 253 244 225 225 229 253 255 263 235
249 250 249 249 250 249 245 242 242 246 249 246 248 247 246 252 257 254 251 258 264 272 264 259 261 259 266 263 250 251 249 251 236 243 252 241 226 224 236 248 255 260 240
251 247 245 246 244 246 247 242 239 242 243 243 246 248 249 247 250 248 254 256 263 265 269 263 258 251 265 260 258 248 242 247 243 243 245 242 236 248 245 236 245 246 245